| time (UTC) | temp C | wind direction | speed KPH | gust KPH | rain 1hr cm | rain 24hr cm | rain mn cm | humidity % | barometer mb |
| 20260505051518 | 18 | 32 | 3.2 | 9.7 | 0.00 | 0.03 | 0.00 | 62 | 1008.5 |
| 20260505041532 | 17 | 25 | 1.6 | 8.0 | 0.00 | 0.03 | 0.00 | 67 | 1007.8 |
| 20260505040036 | 16 | 340 | 0.0 | 3.2 | 0.00 | 0.03 | 0.03 | 69 | 1007.6 |
| 20260505034528 | 16 | 340 | 0.0 | 8.0 | 0.00 | 0.03 | 0.03 | 70 | 1007.6 |
| 20260505033031 | 16 | 292 | 0.0 | 11.3 | 0.00 | 0.03 | 0.03 | 73 | 1007.5 |
| 20260505031528 | 17 | 336 | 0.0 | 4.8 | 0.00 | 0.03 | 0.03 | 72 | 1007.5 |
| 20260505030027 | 18 | 338 | 0.0 | 1.6 | 0.00 | 0.03 | 0.03 | 65 | 1007.6 |
| 20260505024523 | 18 | 342 | 0.0 | 8.0 | 0.00 | 0.03 | 0.03 | 66 | 1007.5 |
| 20260505023023 | 17 | 19 | 0.0 | 6.4 | 0.00 | 0.03 | 0.03 | 68 | 1007.3 |
| 20260505021525 | 17 | 59 | 0.0 | 3.2 | 0.00 | 0.03 | 0.03 | 70 | 1007.2 |
| 20260505020020 | 18 | 43 | 0.0 | 3.2 | 0.00 | 0.03 | 0.03 | 69 | 1007.2 |
| 20260505014520 | 17 | 49 | 0.0 | 3.2 | 0.00 | 0.03 | 0.03 | 70 | 1007.2 |
| 20260505013018 | 18 | 40 | 0.0 | 1.6 | 0.00 | 0.03 | 0.03 | 71 | 1007.1 |
| 20260505011517 | 20 | 36 | 1.6 | 3.2 | 0.00 | 0.03 | 0.03 | 66 | 1007.0 |
| 20260505010015 | 22 | 29 | 0.0 | 1.6 | 0.00 | 0.03 | 0.03 | 55 | 1007.0 |
| 20260505004514 | 22 | 355 | 3.2 | 11.3 | 0.00 | 0.03 | 0.03 | 54 | 1007.0 |
| 20260505003013 | 22 | 17 | 0.0 | 6.4 | 0.00 | 0.03 | 0.03 | 54 | 1006.8 |
| 20260505001513 | 23 | 42 | 0.0 | 8.0 | 0.00 | 0.03 | 0.03 | 54 | 1006.9 |
| 20260505000010 | 23 | 42 | 1.6 | 11.3 | 0.00 | 0.03 | 0.03 | 52 | 1007.1 |
| 20260504234510 | 23 | 36 | 6.4 | 14.5 | 0.00 | 0.03 | 0.03 | 51 | 1007.2 |
| 20260504233011 | 24 | 39 | 6.4 | 20.9 | 0.00 | 0.03 | 0.03 | 50 | 1007.0 |
| 20260504231508 | 25 | 24 | 9.7 | 17.7 | 0.00 | 0.03 | 0.03 | 49 | 1006.9 |
| 20260504230007 | 25 | 26 | 6.4 | 17.7 | 0.00 | 0.03 | 0.03 | 49 | 1007.0 |
| 20260504224504 | 24 | 20 | 8.0 | 19.3 | 0.00 | 0.03 | 0.03 | 50 | 1007.0 |
| 20260504223003 | 24 | 347 | 8.0 | 11.3 | 0.00 | 0.03 | 0.03 | 50 | 1007.3 |
| 20260504221501 | 25 | 22 | 9.7 | 25.7 | 0.00 | 0.03 | 0.03 | 48 | 1007.5 |
| 20260504220123 | 25 | 11 | 11.3 | 20.9 | 0.00 | 0.03 | 0.03 | 49 | 1007.4 |
| 20260504220001 | 25 | 31 | 9.7 | 20.9 | 0.00 | 0.03 | 0.03 | 49 | 1007.5 |
| 20260504214558 | 25 | 40 | 4.8 | 20.9 | 0.00 | 0.03 | 0.03 | 53 | 1007.5 |
| 20260504213100 | 24 | 32 | 11.3 | 25.7 | 0.00 | 0.03 | 0.03 | 51 | 1007.6 |
| 20260504211554 | 24 | 18 | 9.7 | 22.5 | 0.00 | 0.03 | 0.03 | 54 | 1007.6 |
| 20260504210048 | 23 | 309 | 6.4 | 14.5 | 0.00 | 0.03 | 0.03 | 56 | 1008.0 |
| 20260504204516 | 23 | 296 | 8.0 | 19.3 | 0.00 | 0.03 | 0.03 | 55 | 1008.2 |
| 20260504203013 | 23 | 23 | 9.7 | 29.0 | 0.00 | 0.03 | 0.03 | 54 | 1008.2 |
| 20260504201508 | 22 | 9 | 12.9 | 25.7 | 0.00 | 0.03 | 0.03 | 53 | 1008.4 |
| 20260504200005 | 22 | 55 | 16.1 | 35.4 | 0.00 | 0.03 | 0.03 | 54 | 1008.6 |
| 20260504194503 | 21 | 39 | 9.7 | 19.3 | 0.03 | 0.03 | 0.03 | 58 | 1008.7 |
| 20260504193002 | 20 | 22 | 9.7 | 17.7 | 0.03 | 0.03 | 0.03 | 64 | 1008.9 |
| 20260504191546 | 20 | 15 | 16.1 | 29.0 | 0.03 | 0.03 | 0.03 | 66 | 1009.0 |
| 20260504190031 | 18 | 55 | 8.0 | 14.5 | 0.03 | 0.03 | 0.03 | 70 | 1009.4 |
| 20260504184614 | 19 | 11 | 11.3 | 24.1 | 0.00 | 0.00 | 0.00 | 65 | 1009.5 |
| 20260504183107 | 21 | 52 | 16.1 | 24.1 | 0.00 | 0.00 | 0.00 | 57 | 1010.3 |
| 20260504181554 | 22 | 104 | 12.9 | 19.3 | 0.00 | 0.00 | 0.00 | 54 | 1009.7 |
| 20260504180052 | 21 | 55 | 8.0 | 24.1 | 0.00 | 0.00 | 0.00 | 55 | 1009.5 |
| 20260504174550 | 21 | 69 | 12.9 | 24.1 | 0.00 | 0.00 | 0.00 | 56 | 1009.3 |
| 20260504173049 | 20 | 33 | 8.0 | 32.2 | 0.00 | 0.00 | 0.00 | 60 | 1009.4 |
| 20260504171544 | 20 | 315 | 17.7 | 30.6 | 0.00 | 0.00 | 0.00 | 59 | 1009.4 |
| 20260504081506 | 6 | 201 | 0.0 | 8.0 | 0.00 | 0.00 | 0.00 | 90 | 1012.7 |